• In Czech Republic
  • List of Countries
  • For 7 days
  • Water Temperature
  • Satellite Maps
  • Weather Map
  • Weather Widgets
  • user-avatar
    Login

    Hourly Weather Qala i Naw

    Today, 21 October, Saturday

    Time Temperature Precipitation Wind Pressure Humidity
    00:00 +12°C° 0 mm 0 mps 680 mmHg 23%
    01:00 +12°C° 0 mm 0 mps 680 mmHg 23%
    02:00 +11°C° 0 mm 0 mps 680 mmHg 25%
    03:00 +11°C° 0 mm 0 mps 680 mmHg 26%
    04:00 +10°C° 0 mm 0 mps 680 mmHg 31%
    05:00 +10°C° 0 mm 0 mps 680 mmHg 30%
    06:00 +11°C° 0 mm 0 mps 681 mmHg 30%
    07:00 +11°C° 0 mm 0 mps 681 mmHg 30%
    08:00 +15°C° 0 mm 1 mps 682 mmHg 26%
    09:00 +17°C° 0 mm 2 mps 682 mmHg 22%
    10:00 +19°C° 0 mm 2 mps 683 mmHg 18%
    11:00 +19°C° 0 mm 3 mps 682 mmHg 18%
    12:00 +20°C° 0 mm 3 mps 682 mmHg 17%
    13:00 +21°C° 0 mm 4 mps 682 mmHg 16%
    14:00 +20°C° 0 mm 3 mps 682 mmHg 16%
    15:00 +20°C° 0 mm 3 mps 682 mmHg 17%
    16:00 +20°C° 0 mm 3 mps 682 mmHg 17%
    17:00 +18°C° 0 mm 2 mps 682 mmHg 20%
    18:00 +17°C° 0 mm 2 mps 682 mmHg 22%
    19:00 +15°C° 0 mm 1 mps 682 mmHg 25%
    20:00 +14°C° 0 mm 1 mps 682 mmHg 26%
    21:00 +14°C° 0 mm 1 mps 682 mmHg 28%
    22:00 +13°C° 0 mm 1 mps 681 mmHg 29%
    23:00 +12°C° 0 mm 1 mps 681 mmHg 31%

    Tomorrow, 22 October, Sunday

    Time Temperature Precipitation Wind Pressure Humidity
    00:00 +12°C° 0 mm 1 mps 681 mmHg 32%
    01:00 +11°C° 0 mm 1 mps 680 mmHg 33%
    02:00 +10°C° 0 mm 0 mps 680 mmHg 34%
    03:00 +10°C° 0 mm 0 mps 680 mmHg 35%
    04:00 +9°C° 0 mm 0 mps 679 mmHg 35%
    05:00 +10°C° 0 mm 0 mps 680 mmHg 34%
    06:00 +10°C° 0 mm 0 mps 680 mmHg 32%
    07:00 +11°C° 0 mm 0 mps 680 mmHg 31%
    08:00 +14°C° 0 mm 1 mps 681 mmHg 27%
    09:00 +16°C° 0 mm 1 mps 681 mmHg 22%
    10:00 +18°C° 0 mm 2 mps 681 mmHg 18%
    11:00 +19°C° 0 mm 2 mps 681 mmHg 17%
    12:00 +20°C° 0 mm 3 mps 681 mmHg 16%
    13:00 +21°C° 0 mm 3 mps 680 mmHg 14%
    14:00 +21°C° 0 mm 3 mps 680 mmHg 15%
    15:00 +21°C° 0 mm 3 mps 680 mmHg 15%
    16:00 +21°C° 0 mm 3 mps 680 mmHg 15%
    17:00 +19°C° 0 mm 2 mps 680 mmHg 17%
    18:00 +18°C° 0 mm 1 mps 680 mmHg 20%
    19:00 +14°C° 0 mm 0 mps 680 mmHg 22%
    20:00 +15°C° 0 mm 1 mps 679 mmHg 23%
    21:00 +15°C° 0 mm 1 mps 679 mmHg 23%
    22:00 +14°C° 0 mm 1 mps 679 mmHg 23%
    23:00 +14°C° 0 mm 1 mps 679 mmHg 23%

    Day after tomorrow, 23 October, Monday

    Time Temperature Precipitation Wind Pressure Humidity
    00:00 +14°C° 0 mm 1 mps 679 mmHg 23%
    01:00 +13°C° 0 mm 1 mps 679 mmHg 22%
    02:00 +13°C° 0 mm 1 mps 679 mmHg 22%
    03:00 +13°C° 0 mm 1 mps 679 mmHg 22%
    04:00 +13°C° 0 mm 1 mps 679 mmHg 22%
    05:00 +13°C° 0 mm 2 mps 679 mmHg 21%
    06:00 +14°C° 0 mm 2 mps 679 mmHg 20%
    07:00 +15°C° 0 mm 2 mps 680 mmHg 19%
    08:00 +17°C° 0 mm 2 mps 680 mmHg 17%
    09:00 +21°C° 0 mm 1 mps 681 mmHg 14%
    10:00 +23°C° 0 mm 1 mps 682 mmHg 12%
    11:00 +24°C° 0 mm 2 mps 681 mmHg 11%
    12:00 +25°C° 0 mm 3 mps 681 mmHg 11%
    13:00 +26°C° 0 mm 4 mps 681 mmHg 10%
    14:00 +26°C° 0 mm 4 mps 681 mmHg 10%
    15:00 +26°C° 0 mm 4 mps 681 mmHg 10%
    16:00 +26°C° 0 mm 4 mps 682 mmHg 11%
    17:00 +22°C° 0 mm 3 mps 682 mmHg 13%
    18:00 +21°C° 0 mm 1 mps 682 mmHg 16%
    19:00 +17°C° 0 mm 0 mps 682 mmHg 18%
    20:00 +16°C° 0 mm 0 mps 682 mmHg 19%
    21:00 +18°C° 0 mm 1 mps 683 mmHg 19%
    22:00 +16°C° 0 mm 1 mps 683 mmHg 20%
    23:00 +15°C° 0 mm 1 mps 683 mmHg 21%

    24 October, Tuesday

    Time Temperature Precipitation Wind Pressure Humidity
    00:00 +15°C° 0 mm 1 mps 683 mmHg 22%
    01:00 +14°C° 0 mm 1 mps 683 mmHg 23%
    02:00 +14°C° 0 mm 1 mps 684 mmHg 23%
    03:00 +14°C° 0 mm 1 mps 684 mmHg 24%
    04:00 +14°C° 0 mm 1 mps 684 mmHg 24%
    05:00 +14°C° 0 mm 1 mps 684 mmHg 23%
    06:00 +15°C° 0 mm 2 mps 685 mmHg 23%
    07:00 +15°C° 0 mm 2 mps 685 mmHg 22%
    08:00 +17°C° 0 mm 2 mps 686 mmHg 19%
    09:00 +20°C° 0 mm 2 mps 686 mmHg 15%
    10:00 +23°C° 0 mm 2 mps 687 mmHg 12%
    11:00 +24°C° 0 mm 2 mps 686 mmHg 11%
    12:00 +25°C° 0 mm 2 mps 686 mmHg 10%
    13:00 +26°C° 0 mm 3 mps 685 mmHg 9%
    14:00 +26°C° 0 mm 3 mps 685 mmHg 9%
    15:00 +26°C° 0 mm 3 mps 685 mmHg 9%
    16:00 +26°C° 0 mm 3 mps 684 mmHg 9%
    17:00 +23°C° 0 mm 2 mps 684 mmHg 11%
    18:00 +21°C° 0 mm 1 mps 684 mmHg 13%
    19:00 +19°C° 0 mm 1 mps 684 mmHg 15%
    20:00 +19°C° 0 mm 1 mps 684 mmHg 15%
    21:00 +18°C° 0 mm 1 mps 684 mmHg 15%
    22:00 +18°C° 0 mm 1 mps 684 mmHg 15%
    23:00 +16°C° 0 mm 1 mps 684 mmHg 15%

    25 October, Wednesday

    Time Temperature Precipitation Wind Pressure Humidity
    00:00 +16°C° 0 mm 1 mps 684 mmHg 15%
    01:00 +15°C° 0 mm 1 mps 683 mmHg 15%
    02:00 +15°C° 0 mm 1 mps 683 mmHg 15%
    03:00 +14°C° 0 mm 1 mps 683 mmHg 16%
    04:00 +14°C° 0 mm 1 mps 683 mmHg 16%
    05:00 +14°C° 0 mm 1 mps 684 mmHg 16%
    06:00 +15°C° 0 mm 1 mps 684 mmHg 16%
    07:00 +16°C° 0 mm 1 mps 685 mmHg 15%
    08:00 +19°C° 0 mm 1 mps 685 mmHg 13%
    09:00 +22°C° 0 mm 1 mps 686 mmHg 11%
    10:00 +25°C° 0 mm 1 mps 687 mmHg 9%
    11:00 +25°C° 0 mm 2 mps 687 mmHg 9%
    12:00 +26°C° 0 mm 3 mps 686 mmHg 9%
    13:00 +26°C° 0 mm 3 mps 686 mmHg 9%
    14:00 +26°C° 0 mm 3 mps 686 mmHg 9%
    15:00 +25°C° 0 mm 3 mps 686 mmHg 10%
    16:00 +25°C° 0 mm 3 mps 686 mmHg 11%
    17:00 +23°C° 0 mm 2 mps 686 mmHg 12%
    18:00 +21°C° 0 mm 1 mps 686 mmHg 14%
    19:00 +19°C° 0 mm 1 mps 686 mmHg 16%
    20:00 +18°C° 0 mm 1 mps 686 mmHg 17%
    21:00 +18°C° 0 mm 1 mps 686 mmHg 17%
    22:00 +16°C° 0 mm 1 mps 686 mmHg 18%
    23:00 +16°C° 0 mm 1 mps 686 mmHg 19%

    26 October, Thursday

    Time Temperature Precipitation Wind Pressure Humidity
    00:00 +15°C° 0 mm 1 mps 686 mmHg 20%
    01:00 +14°C° 0 mm 1 mps 685 mmHg 20%
    02:00 +14°C° 0 mm 1 mps 685 mmHg 21%
    03:00 +14°C° 0 mm 1 mps 685 mmHg 22%
    04:00 +13°C° 0 mm 1 mps 685 mmHg 22%
    05:00 +13°C° 0 mm 1 mps 685 mmHg 22%
    06:00 +14°C° 0 mm 1 mps 685 mmHg 21%
    07:00 +14°C° 0 mm 1 mps 686 mmHg 21%
    08:00 +16°C° 0 mm 1 mps 686 mmHg 18%
    09:00 +20°C° 0 mm 1 mps 687 mmHg 15%
    10:00 +22°C° 0 mm 1 mps 687 mmHg 12%
    11:00 +23°C° 0 mm 2 mps 687 mmHg 11%
    12:00 +24°C° 0 mm 2 mps 686 mmHg 11%
    13:00 +24°C° 0 mm 3 mps 686 mmHg 10%
    14:00 +24°C° 0 mm 3 mps 686 mmHg 10%
    15:00 +24°C° 0 mm 3 mps 686 mmHg 10%
    16:00 +24°C° 0 mm 3 mps 686 mmHg 10%
    17:00 +21°C° 0 mm 3 mps 686 mmHg 12%
    18:00 +19°C° 0 mm 2 mps 686 mmHg 13%
    19:00 +18°C° 0 mm 2 mps 686 mmHg 15%
    20:00 +17°C° 0 mm 2 mps 686 mmHg 15%
    21:00 +16°C° 0 mm 2 mps 686 mmHg 16%
    22:00 +16°C° 0 mm 2 mps 686 mmHg 16%
    23:00 +15°C° 0 mm 1 mps 685 mmHg 17%
    Show more